Vorticity
nan nan nan nan nan nan nan nan nan nan nan nan nan nan nan nan nan nan nan nan nan nan nan nan nan nan nan nan nan nan nan nan nan nan nan nan nan nan nan nan nan nan nan nan nan nan nan nan nan nan nan nan nan nan nan nan nan nan nan nan nan nan nan nan nan nan nan nan nan
nan 5 5 6 6 6 8 10 11 10 9 9 10 10 9 9 9 9 9 8 9 10 9 11 12 12 14 14 11 9 8 9 10 8 8 8 8 8 7 7 9 9 8 8 6 6 8 9 8 8 8 9 10 10 10 11 12 11 10 9 9 12 13 13 13 13 9 6 nan
nan 7 7 6 6 6 7 10 12 12 9 8 10 10 9 8 9 10 10 10 10 9 9 11 13 13 13 12 10 9 9 10 10 8 8 9 9 8 7 8 9 9 7 7 7 6 8 9 7 7 8 9 10 9 9 10 10 9 8 7 8 10 11 12 14 15 13 10 nan
nan 7 8 9 8 6 5 9 12 10 7 8 9 9 8 8 9 10 10 10 9 8 10 13 13 12 12 11 11 9 9 10 10 8 7 9 10 9 8 8 9 8 7 7 7 8 9 8 6 7 9 9 7 7 8 10 10 8 8 7 8 9 9 10 12 13 13 11 nan
nan 7 8 10 9 5 5 9 11 8 7 8 9 9 8 8 9 10 11 11 10 11 13 13 11 12 13 13 12 10 9 9 8 7 8 9 9 9 9 9 8 8 8 8 9 9 9 5 4 7 9 8 6 7 9 10 8 8 8 9 9 9 8 9 10 11 11 10 nan
nan 7 8 10 9 5 5 9 10 7 6 8 10 9 8 8 10 12 12 11 11 13 13 10 10 12 14 13 11 9 8 7 7 8 10 9 8 10 10 9 8 7 8 9 10 10 7 3 3 7 9 8 8 9 10 8 7 7 8 9 9 9 9 9 9 9 11 13 nan
nan 9 9 10 8 5 6 9 8 7 7 9 11 9 7 8 11 12 10 9 10 11 9 9 11 13 14 12 10 9 8 8 9 10 9 8 9 10 10 9 8 7 8 9 10 9 7 3 3 8 9 9 10 12 10 7 7 8 9 8 8 8 9 8 8 10 11 12 nan
nan 10 9 10 8 6 7 7 7 7 7 9 12 10 8 9 10 9 8 7 8 9 9 11 15 14 14 12 10 9 9 9 9 9 8 9 11 10 9 9 8 8 8 8 9 10 7 4 5 9 9 8 11 14 12 9 8 9 9 8 8 9 10 9 10 11 11 9 nan
nan 10 10 10 8 7 7 8 8 7 8 10 11 10 9 9 8 7 6 7 9 10 9 12 15 15 13 11 10 9 9 9 9 8 9 10 11 9 8 9 9 8 7 8 10 10 6 4 7 10 9 10 13 15 14 11 9 8 7 6 9 11 11 11 13 12 11 8 nan
nan 10 10 9 9 8 7 8 9 8 8 10 10 9 8 8 7 6 5 8 11 11 10 11 14 14 12 10 9 8 8 9 10 9 9 10 11 9 8 9 9 8 8 9 9 8 4 5 9 10 10 12 14 14 13 11 10 8 6 6 10 11 11 12 12 11 9 9 nan
nan 10 9 10 10 8 7 7 8 8 8 9 10 9 8 8 6 6 7 10 12 12 10 11 13 12 10 9 9 9 9 9 10 11 10 10 11 10 9 9 9 9 9 9 7 6 5 8 11 11 10 10 11 12 12 11 9 8 7 10 11 11 9 10 10 9 9 10 nan
nan 11 10 10 10 8 6 6 7 9 9 10 9 8 8 8 7 7 8 11 12 11 9 11 12 11 8 9 10 10 10 11 11 10 11 11 10 10 10 9 9 10 11 8 5 6 8 10 11 11 9 8 8 11 12 10 8 8 8 10 9 9 9 9 8 8 10 11 nan
nan 11 12 11 10 7 6 5 7 9 10 10 8 8 8 10 9 8 8 9 9 9 10 11 11 10 9 10 10 10 11 11 11 10 10 11 11 11 10 9 10 10 10 8 7 8 10 11 12 11 8 7 9 12 12 9 7 7 8 8 7 8 9 8 8 10 11 12 nan
nan 11 12 13 10 6 5 5 6 9 10 10 8 8 9 10 9 8 8 9 9 9 10 10 9 10 12 12 11 11 11 11 11 10 10 10 11 11 10 9 10 9 9 9 10 10 10 10 11 10 10 10 11 12 11 8 8 8 8 8 8 8 9 9 9 10 11 11 nan
nan 10 12 13 10 6 6 4 5 9 11 9 8 8 9 10 10 8 8 9 9 9 9 9 9 11 13 13 11 11 10 10 11 10 10 10 10 10 9 10 10 9 9 10 10 10 10 10 9 9 11 12 12 10 9 8 9 9 9 9 9 9 9 10 10 10 10 9 nan
nan 9 11 12 10 8 6 4 5 9 10 10 9 8 9 10 10 9 9 8 8 9 11 10 9 10 12 12 11 10 9 10 10 10 9 9 10 10 10 10 9 9 9 9 9 9 10 9 9 11 12 12 12 10 9 9 10 11 11 11 11 11 11 11 10 10 10 9 nan
nan 9 10 11 11 9 6 4 5 9 11 10 9 8 8 9 10 10 10 8 8 10 12 10 8 10 11 12 11 9 9 10 10 10 10 10 11 10 10 9 9 10 10 9 9 9 9 9 10 12 13 12 11 11 10 10 11 12 12 12 12 12 12 11 11 10 10 10 nan
nan 9 10 11 11 9 7 5 5 8 10 10 8 7 9 10 11 10 9 8 9 11 11 9 8 10 11 11 9 9 10 11 11 10 11 11 11 10 10 9 9 10 10 9 9 9 9 10 11 12 13 12 11 11 11 11 12 12 13 13 12 12 12 12 11 11 11 11 nan
nan 10 10 11 11 10 8 6 6 8 9 9 8 8 9 11 11 10 8 9 10 11 10 9 9 10 12 11 9 8 10 12 13 11 11 11 11 10 10 10 10 10 10 10 10 10 11 11 11 12 11 11 11 12 12 12 12 12 12 11 11 12 12 12 12 12 13 12 nan
nan 10 11 11 11 10 9 7 6 7 8 9 9 9 9 10 11 10 9 9 9 9 9 10 10 10 11 11 10 9 8 12 14 12 11 11 11 11 11 11 10 9 9 11 11 12 12 12 11 10 10 10 11 10 10 10 11 10 10 9 10 11 12 12 12 12 12 11 nan
nan 9 10 11 12 12 10 7 6 7 8 10 10 9 8 10 11 10 10 9 9 8 9 11 12 12 11 10 9 8 7 11 14 12 11 11 11 11 11 11 10 9 11 14 14 14 13 11 10 9 9 9 9 8 8 8 9 9 9 10 11 11 12 11 11 11 11 10 nan
nan 9 9 11 12 13 12 9 6 6 8 10 10 9 8 9 11 11 10 9 8 7 9 12 13 12 11 9 9 8 8 11 13 12 11 12 12 12 13 12 12 12 13 13 13 12 10 10 9 8 7 7 8 9 9 9 8 8 9 11 11 11 10 10 10 10 10 10 nan
nan 10 9 11 13 13 13 11 7 6 7 9 10 10 9 9 10 11 10 8 7 7 9 12 14 12 10 9 9 9 9 11 12 13 12 13 14 15 15 15 14 12 9 7 8 7 7 6 7 7 7 8 8 8 8 8 7 8 9 9 9 9 9 9 10 10 9 9 nan
nan 12 9 11 13 13 12 11 8 6 6 8 10 10 9 8 10 11 11 9 7 7 8 13 14 12 10 9 9 10 10 11 11 11 13 16 17 16 14 13 11 8 6 7 12 11 8 6 6 6 6 7 8 8 8 8 9 9 9 8 7 7 8 9 10 9 9 9 nan
nan 13 9 10 11 11 11 12 9 7 6 7 10 10 9 9 9 11 11 10 7 7 9 12 12 11 9 9 9 9 9 10 11 12 15 17 16 13 10 8 7 6 8 17 22 17 13 10 9 8 8 8 8 8 9 9 10 10 9 8 7 7 7 8 8 8 9 9 nan
nan 14 11 10 10 10 11 11 10 8 6 7 10 10 10 9 9 11 11 9 7 7 9 11 10 9 9 10 10 9 8 9 13 16 16 14 12 9 7 6 6 8 15 25 24 17 14 13 12 10 9 8 9 8 8 9 11 10 9 8 7 7 8 7 7 8 9 10 nan
nan 14 14 11 10 9 10 10 10 8 6 7 9 10 10 9 10 12 11 8 6 6 8 8 8 8 9 10 10 8 7 12 16 16 14 12 9 7 5 5 7 13 23 28 21 14 12 11 9 8 7 9 9 9 9 11 10 8 7 7 8 8 8 7 7 8 8 9 nan
nan 13 15 14 13 12 10 10 10 8 7 6 8 10 11 11 10 11 10 8 6 5 6 7 7 8 9 12 12 11 11 14 15 13 12 11 8 6 5 7 12 20 29 26 16 11 10 9 7 7 6 7 6 8 9 9 8 6 6 7 8 7 7 6 6 7 7 7 nan
nan 12 14 15 16 14 12 10 10 9 8 7 8 10 12 12 10 10 10 8 5 3 4 7 8 9 11 14 14 13 13 12 11 11 12 11 8 7 8 11 16 23 27 21 11 10 9 9 8 7 6 4 4 6 8 8 7 7 7 8 9 9 9 9 9 8 8 6 nan
nan 11 12 14 15 14 13 12 11 10 8 8 9 10 12 12 11 11 10 7 3 3 6 9 11 13 14 14 13 13 12 10 11 12 13 11 8 9 10 13 17 22 24 17 10 10 9 9 9 8 6 3 3 6 8 10 9 9 9 11 13 13 11 11 11 9 7 7 nan
nan 11 12 13 14 14 14 13 11 10 8 8 10 11 13 14 12 10 8 5 4 7 9 11 13 13 12 14 15 14 12 10 11 11 11 10 10 10 12 14 16 19 22 17 10 10 10 9 8 7 5 2 1 6 11 12 11 11 13 15 16 13 10 8 8 9 9 8 nan
nan 11 12 13 13 14 13 12 11 11 10 8 8 11 14 13 10 9 8 7 7 7 8 11 13 12 12 14 15 14 12 11 11 11 11 11 11 11 12 13 14 18 22 18 11 10 10 9 7 6 5 2 3 9 12 12 11 11 14 16 14 11 8 8 9 10 9 8 nan
nan 11 13 13 14 14 14 13 13 13 12 10 10 13 14 12 10 10 8 6 6 7 8 11 12 10 11 11 11 11 10 10 11 12 12 12 12 11 10 9 13 20 24 18 11 10 9 8 7 6 5 2 3 8 10 10 9 10 12 12 11 10 10 10 11 11 10 9 nan
nan 11 12 14 15 15 15 14 13 13 12 13 15 15 14 11 10 8 4 3 5 8 10 12 11 10 10 10 11 10 8 10 12 12 12 11 11 9 7 7 16 26 26 17 10 9 8 7 6 5 3 -2 0 6 10 10 10 12 13 13 11 11 11 11 11 11 11 10 nan
nan 9 11 13 15 16 16 15 13 14 14 15 16 16 13 11 8 5 3 3 7 10 12 13 13 12 12 13 12 10 9 11 12 12 11 10 10 9 9 11 21 29 25 15 9 9 8 7 6 3 -2 -6 -0 6 9 9 10 12 13 12 11 11 11 10 10 11 11 11 nan
nan 7 8 9 11 13 14 14 13 14 15 15 15 14 10 8 7 7 6 7 9 13 13 13 13 13 13 12 10 10 11 12 11 11 11 10 10 10 10 14 21 25 20 13 10 9 8 6 3 -1 -6 -6 2 7 7 6 7 9 10 10 9 9 9 9 9 10 11 11 nan
nan 6 6 7 8 9 11 12 12 12 13 14 13 12 11 8 5 7 8 10 11 13 12 12 13 12 11 9 9 12 14 13 11 11 10 10 10 10 11 14 18 19 17 14 11 9 7 5 0 -4 -7 -2 6 8 6 5 7 7 6 6 6 7 7 6 6 8 10 13 nan
nan 6 6 6 6 6 7 9 10 10 10 10 10 10 11 8 6 7 9 11 12 12 10 10 11 10 10 10 11 13 14 13 12 11 10 9 10 11 12 12 13 15 17 16 11 8 6 3 -0 -2 -3 3 7 6 5 7 9 8 5 4 5 6 7 6 6 8 11 17 nan
nan 7 6 6 6 6 6 8 8 8 9 8 8 9 10 8 7 10 12 12 12 12 11 11 11 10 10 9 10 12 12 12 12 10 10 10 12 13 12 10 10 14 18 17 11 8 6 4 3 1 -1 1 4 4 6 8 10 8 7 5 5 6 6 8 9 10 12 15 nan
nan 9 7 7 7 6 7 7 7 7 9 9 9 9 8 7 8 12 12 12 13 12 12 12 12 10 9 10 11 12 11 11 11 11 11 13 14 13 10 9 11 14 18 16 11 9 7 6 4 -0 -5 -2 4 5 7 9 9 9 7 6 6 5 5 8 10 10 11 10 nan
nan nan nan nan nan nan nan nan nan nan nan nan nan nan nan nan nan nan nan nan nan nan nan nan nan nan nan nan nan nan nan nan nan nan nan nan nan nan nan nan nan nan nan nan nan nan nan nan nan nan nan nan nan nan nan nan nan nan nan nan nan nan nan nan nan nan nan nan nan
CAPE
0 1 1 4 3 3 0 nan nan nan nan nan nan nan nan nan nan nan nan nan nan nan nan nan nan nan nan nan nan nan nan nan nan nan nan nan nan nan nan nan nan nan nan nan nan nan nan nan nan nan nan nan nan nan nan nan nan nan nan nan nan nan nan nan nan nan nan nan nan
0 2 2 3 3 3 1 nan nan nan nan nan nan nan nan nan nan nan nan nan nan nan nan nan nan nan nan nan nan nan nan nan nan nan nan nan nan nan nan nan nan nan nan nan nan nan nan nan nan nan nan nan nan nan nan nan nan nan nan nan nan nan nan nan nan nan nan nan nan
4 3 3 5 5 5 1 nan nan nan nan nan nan nan nan nan nan nan nan nan nan nan nan nan nan nan nan nan nan nan nan nan nan nan nan nan nan nan nan nan nan nan nan nan nan nan nan nan nan nan nan nan nan nan nan nan nan nan nan nan nan nan nan nan nan nan nan nan nan
7 4 4 4 3 3 0 nan nan nan nan nan nan nan nan nan nan nan nan nan nan nan nan nan nan nan nan nan nan nan nan nan nan nan nan nan nan nan nan nan nan nan nan nan nan nan nan nan nan nan nan nan nan nan nan nan nan nan nan nan nan nan nan nan nan nan nan nan nan
16 11 11 3 1 1 nan nan nan nan nan nan nan nan nan nan nan nan nan nan nan nan nan nan nan nan nan nan nan nan nan nan nan nan nan nan nan nan nan nan nan nan nan nan nan nan nan nan nan nan nan nan nan nan nan nan nan nan nan nan nan nan nan nan nan nan nan nan nan
28 10 10 1 nan nan nan nan nan nan nan nan nan nan nan nan nan nan nan nan nan nan nan nan nan nan nan nan nan nan nan nan nan nan nan nan nan nan nan nan nan nan nan nan nan nan nan nan nan nan nan nan nan nan nan nan nan nan nan nan nan nan nan nan nan nan nan nan nan
32 10 10 1 nan nan nan nan nan nan nan nan nan nan nan nan nan nan nan nan nan nan nan nan nan nan nan nan nan nan nan nan nan nan nan nan nan nan nan nan nan nan nan nan nan nan nan nan nan nan nan nan nan nan nan nan nan nan nan nan nan nan nan nan nan nan nan nan nan
23 13 13 1 0 0 nan nan nan nan nan nan nan nan nan nan nan nan nan nan nan nan nan nan nan nan nan nan nan nan nan nan nan nan nan nan nan nan nan nan nan nan nan nan nan nan nan nan nan nan nan nan nan nan nan nan nan nan nan nan nan nan nan nan nan nan nan nan nan
39 7 7 0 nan nan nan nan nan nan nan nan nan nan nan nan nan nan nan nan nan nan nan nan nan nan nan nan nan nan nan nan nan nan nan nan nan nan nan nan nan nan nan nan nan nan nan nan nan nan nan nan nan nan nan nan nan nan nan nan nan nan nan nan nan nan nan nan nan
56 12 12 0 nan nan nan nan nan nan nan nan nan nan nan nan nan nan nan nan nan nan nan nan nan nan nan nan nan nan nan nan nan nan nan nan nan nan nan nan nan nan nan nan nan nan nan nan nan nan nan nan nan nan nan nan nan nan nan nan nan nan nan nan nan nan nan nan nan
65 32 32 6 nan nan nan nan nan nan nan nan nan nan nan nan nan nan nan nan nan nan nan nan nan nan nan nan nan nan nan nan nan nan nan nan nan nan nan nan nan nan nan nan nan nan nan nan nan nan nan nan nan nan nan nan nan nan nan nan nan nan nan nan nan nan nan nan nan
57 33 33 7 0 0 nan nan nan nan nan nan nan nan nan nan nan nan nan nan nan nan nan nan nan nan nan nan nan nan nan nan nan nan nan nan nan nan nan nan nan nan nan nan nan nan nan nan nan nan nan nan nan nan nan nan nan nan nan nan nan nan nan nan nan nan nan nan nan
67 50 50 14 3 3 nan nan nan nan nan nan nan nan nan nan nan nan nan nan nan nan nan nan nan nan nan nan nan nan nan nan nan nan nan nan nan nan nan nan nan nan nan nan nan nan nan nan nan nan nan nan nan nan nan nan nan nan nan nan nan nan nan nan nan nan nan nan nan
76 57 57 27 8 8 nan nan nan nan nan nan nan nan nan nan nan nan nan nan nan nan nan nan nan nan nan nan nan nan nan nan nan nan nan nan nan nan nan nan nan nan nan nan nan nan nan nan nan nan nan nan nan nan nan nan nan nan nan nan nan nan nan nan nan nan nan nan nan
63 48 48 26 15 15 6 nan nan nan nan nan nan nan nan nan nan nan nan nan nan nan nan nan nan nan nan nan nan nan nan nan nan nan nan nan nan nan nan nan nan nan nan nan nan nan nan nan nan nan nan nan nan nan nan nan nan nan nan nan nan nan nan nan nan nan nan nan nan
65 52 52 37 24 24 11 nan nan nan nan nan nan nan nan nan nan nan nan nan nan nan nan nan nan nan nan nan nan nan nan nan nan nan nan nan nan nan nan nan nan nan nan nan nan nan nan nan nan nan nan nan nan nan nan nan nan nan nan nan nan nan nan nan nan nan nan nan nan
65 54 54 49 37 37 18 2 nan nan nan nan nan nan nan nan nan nan nan nan nan nan nan nan nan nan nan nan nan nan nan nan nan nan nan nan nan nan nan nan nan nan nan nan nan nan nan nan nan nan nan nan nan nan nan nan nan nan nan nan nan nan nan nan nan nan nan nan nan
67 78 78 85 82 82 49 3 nan nan nan nan nan nan nan nan nan nan nan nan nan nan nan nan nan nan nan nan nan nan nan nan nan nan nan nan nan nan nan nan nan nan nan nan nan nan nan nan nan nan nan nan nan nan nan nan nan nan nan nan nan nan nan nan nan nan nan nan nan
68 64 64 85 95 95 60 3 nan nan nan nan nan nan nan nan nan nan nan nan nan nan nan nan nan nan nan nan nan nan nan nan nan nan nan nan nan nan nan nan nan nan nan nan nan nan nan nan nan nan nan nan nan nan nan nan nan nan nan nan nan nan nan nan nan nan nan nan nan
79 61 61 72 81 81 96 32 nan nan nan nan nan nan nan nan nan nan nan nan nan nan nan nan nan nan nan nan nan nan nan nan nan nan nan nan nan nan nan nan nan nan nan nan nan nan nan nan nan nan nan nan nan nan nan nan nan nan nan nan nan nan nan nan nan nan nan nan nan
114 72 72 47 56 56 84 79 4 4 nan nan nan nan nan nan nan nan nan nan nan nan nan nan nan nan nan nan nan nan nan nan nan nan nan nan nan nan nan 0 nan nan nan nan nan nan nan nan nan nan nan nan nan nan nan nan nan nan nan nan nan nan nan nan nan nan nan nan nan
155 84 84 37 37 37 74 92 38 38 nan nan nan nan nan nan nan nan nan nan nan nan nan nan nan nan nan nan nan nan nan nan nan nan nan nan 2 2 2 nan nan nan nan nan nan nan nan nan nan nan nan nan nan nan nan nan nan nan nan nan nan nan nan nan nan nan nan nan nan
114 97 97 37 29 29 23 67 69 69 3 nan nan nan nan nan nan nan nan nan nan nan nan nan nan nan nan nan 0 0 nan nan nan nan nan 0 4 nan nan nan nan nan nan nan nan nan nan nan nan nan nan nan nan nan nan nan nan nan nan nan nan nan nan nan nan nan nan nan nan
36 112 112 109 45 45 64 93 82 82 19 nan nan nan nan nan nan nan nan nan nan nan nan nan nan nan nan 1 3 3 2 1 0 nan nan nan nan nan nan nan nan nan nan nan nan nan nan nan nan nan nan nan nan nan nan nan nan nan nan nan nan nan nan nan nan nan nan nan nan
4 86 86 149 79 79 75 107 109 109 44 6 nan nan nan nan nan nan nan nan nan nan nan nan nan 0 0 2 7 7 7 4 1 nan nan nan nan nan nan nan nan nan nan nan nan nan nan nan nan nan nan nan nan nan nan nan nan nan nan nan nan nan nan nan nan nan nan nan nan
2 66 66 135 119 119 87 123 124 124 57 14 0 nan nan nan 0 0 0 nan nan nan nan nan nan nan nan 3 9 9 10 4 1 nan nan nan nan nan nan nan nan nan nan nan nan nan nan nan nan nan nan nan nan nan nan nan nan nan nan nan nan nan nan nan nan nan nan nan nan
2 19 19 121 143 143 146 139 140 140 78 26 5 0 0 2 5 3 3 1 nan nan nan nan nan nan nan 3 6 6 7 2 nan nan nan nan nan nan nan nan nan nan nan nan nan nan nan nan nan nan nan nan nan nan nan nan nan nan nan nan nan nan nan nan nan nan nan nan nan
7 8 8 88 116 116 152 158 137 137 97 39 14 8 8 5 10 9 9 3 nan nan nan nan nan nan nan nan 3 3 0 nan nan nan nan nan nan nan nan nan nan nan nan nan nan nan nan nan nan nan nan nan nan nan nan nan nan nan nan nan nan nan nan nan nan nan nan nan nan
9 13 13 42 102 102 145 179 140 140 94 46 20 13 13 13 13 12 12 7 0 nan nan nan nan nan nan nan nan nan nan nan nan nan nan nan nan nan nan nan nan nan nan nan nan nan nan nan nan nan nan nan nan nan nan nan nan nan nan nan nan nan nan nan nan nan nan nan nan
15 22 22 30 74 74 134 150 118 118 88 64 28 17 17 13 15 17 17 8 1 nan nan nan nan nan nan nan nan nan nan nan nan nan nan nan nan nan nan nan nan nan nan nan nan nan nan 0 0 0 nan nan nan nan nan nan nan nan nan nan nan nan nan nan nan nan nan nan nan
19 31 31 34 49 49 94 145 123 123 73 69 32 19 19 18 20 20 20 10 1 nan nan nan nan nan nan nan nan nan nan nan nan nan nan nan nan nan nan nan nan nan nan nan nan nan nan 0 0 0 nan nan nan nan nan nan nan nan nan nan nan nan nan nan nan nan nan nan nan
21 27 27 38 51 51 80 107 98 98 86 60 25 11 11 13 17 15 15 7 0 nan nan nan nan nan nan nan nan nan nan nan nan nan nan nan nan nan nan nan nan nan nan nan 0 0 0 1 0 0 nan nan nan nan nan nan nan nan nan nan nan nan nan nan nan nan nan nan nan
13 23 23 39 55 55 54 51 52 52 74 40 7 8 8 11 12 13 13 6 2 nan nan nan nan nan nan nan nan nan nan nan nan nan nan nan nan nan nan nan nan nan nan nan 1 1 1 1 0 0 nan nan nan nan nan nan nan nan nan nan nan nan nan nan nan nan nan nan nan
3 14 14 27 45 45 47 35 38 38 65 29 0 4 4 10 14 21 21 8 3 1 1 nan nan nan nan nan nan nan nan nan nan nan nan nan nan nan nan nan nan nan nan 0 1 1 1 1 0 0 nan nan nan nan nan nan nan nan nan nan nan nan nan nan nan nan nan nan nan
2 5 5 12 34 34 47 41 27 27 42 28 2 2 2 4 12 16 16 0 nan 0 0 nan nan nan nan nan nan nan nan nan nan nan nan nan nan nan nan nan nan nan nan 1 1 1 1 1 1 1 nan nan nan nan nan nan nan nan nan nan nan nan nan nan nan nan nan nan nan
3 3 3 6 24 24 55 39 26 26 31 25 12 4 4 0 4 5 5 nan nan nan nan nan nan nan nan nan nan nan nan nan nan nan nan nan nan nan nan nan nan nan nan 0 1 1 2 1 0 0 nan nan nan nan nan nan nan nan nan nan nan nan nan nan nan nan nan nan nan
16 24 24 25 36 36 50 46 28 28 32 30 18 13 13 3 0 nan nan nan nan nan nan nan nan nan nan nan nan nan nan nan nan nan nan nan nan nan nan nan nan nan nan 0 1 1 2 1 0 0 nan nan nan nan nan nan nan nan nan nan nan nan nan nan nan nan nan nan nan
29 36 36 46 45 45 54 60 45 45 39 37 13 5 5 3 nan nan nan nan nan nan nan nan nan nan nan nan nan nan nan nan nan nan nan nan nan nan nan nan nan nan nan 0 1 1 1 1 0 0 nan nan nan nan nan nan nan nan nan nan nan nan nan nan nan nan nan nan nan
22 30 30 34 44 44 52 96 95 95 67 42 0 nan nan 1 nan nan nan nan nan nan nan nan nan nan nan nan nan nan nan nan nan nan nan nan nan nan nan nan nan nan nan nan 1 1 1 1 0 0 nan nan nan nan nan nan nan nan nan nan nan nan nan nan nan nan nan nan nan
10 15 15 19 29 29 36 96 127 127 106 62 nan nan nan nan nan nan nan nan nan nan nan nan nan nan nan nan nan nan nan nan nan nan nan nan nan nan nan nan nan nan nan nan 0 0 1 1 0 0 nan nan nan nan nan nan nan nan nan nan nan nan nan nan nan nan nan nan nan
9 10 10 9 12 12 12 50 117 117 125 62 2 nan nan nan nan nan nan nan nan nan nan nan nan nan nan nan nan nan nan nan nan nan nan nan nan nan nan nan nan nan nan nan 0 0 1 1 0 0 nan nan nan nan nan nan nan nan nan nan nan nan nan nan nan nan nan nan nan